Location: Michelbach Markt
(48.1000°N, 15.7500°E)
Time: 13:22:01
(UTC+01:00)

X-37B - Pass Details

Date: 07 December 2023
Orbit: 277 x 277 km, 45.0° (Epoch: 01 November)

Event Time Altitude Azimuth Distance (km) Brightness Sun altitude
Rises 16:31:40 0° 257° (WSW) 1,914 6.0 -4.8°
Reaches altitude 10° 16:33:38 10° 249° (WSW) 1,102 4.7 -5.1°
Maximum altitude 16:35:58 38° 178° (S) 439 1.1 -5.4°
Drops below altitude 10° 16:38:17 10° 106° (ESE) 1,102 2.5 -5.8°
Enters shadow 16:39:24 - 100° (E) 1,558 3.2 -5.9°
